Location: Daerah Kuala Lumpur
(3.1167°N, 101.6833°E)
Time: 07:08:59
(UTC+00:00)

Meteor 2-1 Rocket - Pass Details

Date: 05 August 2024
Orbit: 825 x 910 km, 81.3° (Epoch: 13 September)

Event Time Altitude Azimuth Distance (km) Brightness Sun altitude
Rises 12:03:30 0° 5° (N) 3,355 7.5 -9.7°
Reaches altitude 10° 12:05:57 10° 11° (N) 2,430 6.7 -10.2°
Maximum altitude 12:11:15 49° 85° (E) 1,068 4.4 -11.5°
Drops below altitude 10° 12:16:39 10° 159° (SSE) 2,480 6.3 -12.8°
Sets 12:19:10 0° 164° (SSE) 3,431 7.0 -13.4°
